Preview of NWS' New Version of Forecast
This preview is not operational and should not be used for support decisions.

Regional Weather Roundup (RWR)

Issued by National Weather Service (NWS)

                            
000
ASUS43 KMKX 192110
RWRWI 

WISCONSIN REGIONAL WEATHER ROUNDUP
NATIONAL WEATHER SERVICE MILWAUKEE/SULLIVAN WI
400 PM CDT SUN MAY 19 2019

NOTE: "FAIR" INDICATES FEW OR NO CLOUDS BELOW 12,000 FEET WITH NO
SIGNIFICANT WEATHER AND/OR OBSTRUCTIONS TO VISIBILITY.

WIZ001-002-006>008-014>016-023>028-192200-
NORTHWEST WISCONSIN
  
CITY           SKY/WX    TMP DP  RH WIND       PRES   REMARKS
SUPERIOR ARPT  LGT RAIN  35  34  99 NE9       29.92S WCI  27          
ASHLAND        RAIN      38  32  79 NE25G36   29.85S WCI  27          
HAYWARD        LGT RAIN  36  32  85 NE20G35   29.79R WCI  25          
SIREN          LGT SNOW  34  34 100 N13G25    29.84R WCI  25          
CUMBERLAND     RAIN      34  32  93 N12G20    29.78R WCI  25          
RICE LAKE      DRIZZLE   37  29  74 N13       29.77R WCI  28          
CHETEK         LGT RAIN  39  38  98 N9        29.75R WCI  33          
LADYSMITH      LGT RAIN  39  38  94 N18       29.73R WCI  30          
EAU CLAIRE     LGT RAIN  41  39  93 N14G32    29.69R FOG              
MENOMONIE      CLOUDY   N/A N/A N/A NW16G26   29.73R HAZE             
NEW RICHMOND   LGT RAIN  37  35  92 N16       29.80R WCI  27          
OSCEOLA        CLOUDY    36  35  96 N9G16     29.85R WCI  29          
$$
 
WIZ003>005-009-010-017-018-192200-
NORTH CENTRAL WISCONSIN
  
CITY           SKY/WX    TMP DP  RH WIND       PRES   REMARKS
MANITOWISH WTR LGT RAIN  37  37 100 N7G24     29.70R WCI  32          
ARBOR VITAE    DRIZZLE   41  39  92 N13G21    29.67R                  
WOODRUFF       DRIZZLE   41  39  92 N13G21    29.67R                  
RHINELANDER    LGT RAIN  43  37  79 NE15G30   29.64                   
EAGLE RIVER    CLOUDY    40  38  95 NE16G28   29.65F WCI  31          
LAND O LAKES   CLOUDY    38  38 100 NE16G24   29.71S WCI  29          
PHILLIPS       RAIN      38  38 100 N13G22    29.69R WCI  31          
TOMAHAWK       HVY RAIN  40  38  93 NE9       29.65R WCI  34          
MEDFORD        LGT RAIN  42  40  95 NE17      29.63R                  
MERRILL        DRIZZLE   43  43 100 NE10      29.63R                  
$$
 
WIZ029-030-035-036-043>047-192200-
CENTRAL WISCONSIN
  
CITY           SKY/WX    TMP DP  RH WIND       PRES   REMARKS
WAUSAU         LGT RAIN  44  41  89 NE9G21    29.58R FOG              
MOSINEE        LGT RAIN  45  45 100 NE10      29.60R                  
MARSHFIELD     LGT RAIN  47  44  90 NE12      29.59R FOG              
STEVENS POINT  DRIZZLE   44  44 100 NE8       29.59R                  
WAUPACA        DRIZZLE   49  47  92 N3        29.58R                  
WAUTOMA        LGT RAIN  48  46  93 E8        29.58S FOG              
WISC RAPIDS    LGT RAIN  48  46  93 E7        29.58R FOG              
CAMP DOUGLAS   DRIZZLE   52  52 100 NW8       29.58R FOG              
$$
 
WIZ011>013-019>022-031-037>040-048>050-192200-
NORTHEAST WISCONSIN
  
CITY           SKY/WX    TMP DP  RH WIND       PRES   REMARKS
ANTIGO         CLOUDY    42  40  93 NE18G25   29.59S                  
SHAWANO        CLOUDY    48  45  91 NE15      29.57R                  
OCONTO         CLOUDY    46  44  93 NE10G16   29.56F                  
STURGEON BAY   LGT RAIN  44  43  96 N15       29.55F                  
GREEN BAY      CLOUDY    48  44  86 NE18G30   29.55F                  
MANITOWOC      CLOUDY    50  47  89 N6        29.54S                  
APPLETON       CLOUDY    46  45  93 NE12      29.54R FOG              
CLINTONVILLE   LGT RAIN  47  44  88 NE10G22   29.56F                  
OSHKOSH        LGT RAIN  49  47  93 N8        29.56R FOG              
$$
 
WIZ032>034-041-042-053>061-192200-
SOUTHWEST WISCONSIN
  
CITY           SKY/WX    TMP DP  RH WIND       PRES   REMARKS
LA CROSSE      CLOUDY    52  47  83 NW17G25   29.64R                  
SPARTA         CLOUDY    49  47  92 W7        29.62R                  
VIROQUA        CLOUDY    50  50  97 NW16G22   29.63R                  
BOSCOBEL       CLOUDY    58  45  62 W14G25    29.65R                  
PRAIRIE DU CHI CLOUDY    57  44  61 W16G25    29.66R                  
PLATTEVILLE    PTSUNNY   61  53  73 W22G30    29.65R                  
$$

WIZ056-057-062-063-064-067-068-192200-
SOUTH CENTRAL WISCONSIN
  
CITY           SKY/WX    TMP DP  RH WIND       PRES   REMARKS
REEDSBURG      CLOUDY    53  47  81 W16G24    29.59R                  
BARABOO/DELLS  CLOUDY    53  46  77 W14       29.59R                  
LONE ROCK      CLOUDY    56  46  69 W21G31    29.62R                  
MINERAL POINT  CLOUDY    59  54  82 W18G26    29.63R                  
MADISON        PTSUNNY   61  49  64 W9G23     29.58R                  
MIDDLETON      PTSUNNY   61  50  66 W22       29.60R                  
WATERTOWN      CLOUDY    64  53  69 SW17G25   29.56R                  
MONROE         PTSUNNY   62  51  67 W24G36    29.61S                  
JANESVILLE     PTSUNNY   66  54  63 SW18G29   29.60R                  
$$
 
WIZ051-052-058>065-066-070>072-192200-
SOUTHEAST WISCONSIN
  
CITY           SKY/WX    TMP DP  RH WIND       PRES   REMARKS
MILWAUKEE      PTSUNNY   70  56  61 SW18G30   29.55S                  
WAUKESHA       PTSUNNY   66  55  68 W24       29.56R                  
MILWAUKEE/TIMM PTSUNNY   70  54  56 SW21G31   29.54S                  
RACINE         FAIR      71  56  58 SW16G32   29.57R                  
KENOSHA        FAIR      72  59  63 W25G36    29.56S                  
FOND DU LAC    LGT RAIN  51  51 100 NW5       29.55R                  
SHEBOYGAN      CLOUDY    53  50  89 E7        29.52F                  
WEST BEND      CLOUDY    63  55  77 W16G29    29.54R                  
JUNEAU         CLOUDY    58  52  79 W18G28    29.57R                  
$$

LSZ147-162-192200-
LAKE SUPERIOR
  
STATION/POSITION TIME  TEMP    WIND        PRES    WAVE
                       AIR SEA DIR/SP/G            HT/PER
                 (UTC) (F)     (DEG/KT/KT) (MB)    (FT/S)
W MID LAKE BUOY  2050   37 36   20/ 23/ 31 1012.0S   7/ 7
$$
 
LMZ867-665-643>646-192200-
LAKE MICHIGAN
  
STATION/POSITION TIME  TEMP    WIND        PRES    WAVE
                       AIR SEA DIR/SP/G            HT/PER
                 (UTC) (F)     (DEG/KT/KT) (MB)    (FT/S)
CHAMBERS ISLAND  2040          360/ 22/ 27 1000.3F
N MID LAKE BUOY  2050   40 37   60/ 12/ 16 1000.1R   5/ 6
NORTHPORT PIER   2040   42      10/ 18/ 24 1001.7R
KEWAUNEE LAKESHO 2048   48     330/  5/  9  999.3F
SHEBOYGAN LAKESH 2100   42      30/  9/ 10 1000.5R
MILWAUKEE LAKESH 2050   67     250/ 18/ 21   N/A
S MID LAKE BUOY  2050   47 39  230/  8/ 10 1002.3R   2/ 4
KENOSHA   LAKESH 2100   70     250/ 19/ 31 1001.7
$$

TC  - TEMPERATURE IN CELSIUS
VSB - VISIBILITY IN STATUTE MILES
WCI - WIND CHILL INDEX
HX  - HEAT INDEX